Location: Czekanka
(50.4925°N, 19.2643°E)
Time: 15:19:01
(UTC+00:00)

SL-16 R/B - Pass Details

Date: 23 September 2024
Orbit: 842 x 846 km, 71.0° (Epoch: 07 October)

Event Time Altitude Azimuth Distance (km) Brightness Sun altitude
Rises 23:25:53 0° 327° (NNW) 3,412 5.8 -38.9°
Reaches altitude 10° 23:30:34 10° 1° (N) 2,474 5.3 -38.7°
Maximum altitude 23:32:11 11° 18° (NNE) 2,393 5.2 -38.6°
Drops below altitude 10° 23:33:47 10° 35° (NE) 2,472 5.3 -38.5°
Sets 23:38:27 0° 70° (ENE) 3,404 5.8 -38.3°
